Location: ????
(30.1475°N, 31.1342°E)
Time: 08:31:38
(UTC+00:00)

Meteor 1-14 Rocket - Pass Details

Date: 03 April 2023
Orbit: 834 x 918 km, 81.3° (Epoch: 03 June)

Event Time Altitude Azimuth Distance (km) Brightness Sun altitude
Rises 01:45:34 0° 344° (NNW) 3,396 7.4 -25.4°
Reaches altitude 10° 01:48:03 10° 339° (NNW) 2,466 6.6 -24.9°
Enters shadow 01:51:54 38° 307° (NW) 1,271 4.8 -24.1°
